Location: Newark
(42.9260°N, 89.3850°W)
Time: 08:02:23
(UTC+00:00)

STARLINK 1014 - Pass Details

Date: 12 December 2019
Orbit: 369 x 376 km, 53.0° (Epoch: 29 January)

Event Time Altitude Azimuth Distance (km) Brightness Sun altitude
Exits shadow 11:40:19 17° 208° (SSW) 1,012 4.8 -17.4°
Drops below altitude 10° 11:41:50 10° 180° (S) 1,362 5.8 -17.1°
Sets 11:44:14 0° 161° (SSE) 2,208 7.2 -16.7°
